Vorticity
13 3 20 27 24 20 7 2 -12 -16 -21 5 13 10 12 7 9 9 9 13 12 15 16 15 15 10 5 11 12 15 14 21 12 25 23 27 12 5 6 7 20 -2 12 -7
17 40 9 -10 5 3 10 11 8 18 -6 20 7 10 14 9 7 8 8 10 12 13 15 15 16 14 8 6 11 12 13 13 17 12 22 19 23 14 10 12 10 24 6 18
20 10 11 65 58 50 29 17 16 11 12 3 4 9 9 13 10 8 7 7 11 11 13 16 17 16 14 9 8 12 11 11 13 24 22 -3 24 14 11 10 13 10 12 11
-1 42 19 -5 -17 -23 -6 4 11 15 6 2 13 11 6 9 11 10 7 7 7 11 11 14 16 17 15 12 9 7 12 11 11 14 14 26 3 12 19 11 9 10 2 10
2 5 -16 82 49 32 25 -3 41 37 -31 8 11 10 4 7 9 12 8 7 6 8 10 11 14 15 16 16 13 9 7 12 12 11 14 17 22 14 6 14 8 5 3 15
15 7 -0 0 0 -3 2 36 18 -31 10 9 12 10 4 5 6 12 10 8 6 6 8 10 10 12 15 16 17 13 10 6 12 12 12 11 16 29 12 2 27 -5 29 22
2 -5 14 15 21 8 24 -10 -22 1 4 10 12 9 5 5 5 8 12 9 7 6 6 8 9 10 12 14 15 17 15 11 8 11 13 11 11 16 16 23 3 10 16 1
36 2 19 4 -8 -2 -5 5 13 10 6 13 17 13 5 6 4 5 11 12 8 6 6 6 8 9 10 11 14 15 15 15 13 9 10 13 11 10 16 9 17 21 5 8
-16 -21 -26 -33 7 6 4 18 14 8 13 14 15 14 8 5 6 7 4 16 10 7 7 6 7 8 9 10 12 13 14 15 16 14 11 9 13 10 13 15 9 24 13 12
10 5 17 -7 -4 22 22 6 9 11 12 12 12 13 9 8 7 9 2 14 14 9 6 7 6 7 8 10 10 12 14 15 15 15 15 13 8 13 9 13 15 9 17 19
2 7 12 57 31 17 -2 9 11 15 11 10 15 14 9 11 6 7 7 12 13 10 7 7 7 7 8 9 10 11 13 14 14 14 14 16 14 8 14 10 13 13 12 16
19 30 22 28 4 -4 10 6 4 5 13 12 10 16 15 10 10 6 6 12 13 13 9 6 6 8 8 8 9 11 12 13 15 14 14 14 16 16 12 12 13 14 9 11
9 17 28 19 18 4 2 -0 4 6 7 12 16 13 18 8 12 6 3 10 16 13 8 8 7 7 9 10 8 9 13 14 14 14 12 13 14 15 16 13 10 16 15 14
27 24 40 8 3 3 1 4 12 13 11 13 17 12 18 9 12 7 3 7 14 12 9 7 9 6 10 10 8 9 13 16 15 12 13 12 13 13 15 16 14 6 17 11
71 32 2 0 1 2 2 7 18 16 18 12 16 14 13 10 10 8 7 6 13 13 8 10 9 6 11 8 9 10 14 17 17 12 12 12 12 13 12 12 15 13 13 18
-16 -5 5 6 6 3 6 8 9 19 11 10 18 16 11 9 10 9 10 9 14 11 9 8 9 11 9 9 10 12 16 18 16 14 11 12 10 11 13 12 11 13 14 14
7 8 5 6 7 5 8 11 8 12 15 14 16 18 8 8 9 11 11 10 14 11 7 9 11 11 10 10 12 16 18 18 15 14 13 11 10 9 10 12 12 11 11 13
7 7 5 4 5 1 4 7 8 14 17 16 16 19 10 7 8 11 12 12 14 8 9 11 11 11 10 12 15 18 18 17 14 13 13 12 10 10 9 10 10 10 13 13
6 6 4 3 3 5 -0 1 14 20 20 17 20 18 10 7 9 12 12 15 10 8 10 12 12 11 11 16 19 18 17 14 13 13 13 10 10 9 9 8 7 10 11 12
8 6 3 2 6 10 3 5 21 23 20 24 22 12 8 9 12 13 16 10 7 10 13 12 12 12 17 19 18 16 15 13 13 14 14 11 8 8 8 7 7 8 10 13
6 6 6 7 6 15 14 15 24 19 22 19 12 8 9 11 15 17 10 8 11 14 13 12 14 18 18 16 16 16 14 13 14 13 11 10 10 9 8 7 7 9 12 15
4 6 5 7 8 16 15 16 17 21 20 12 10 8 13 18 16 9 8 12 15 15 12 16 18 16 15 16 18 15 13 13 13 14 14 12 11 11 11 11 11 12 13 12
2 1 8 10 9 10 13 11 19 23 14 10 8 16 19 13 7 10 14 15 14 15 18 17 16 17 15 13 13 12 11 11 12 12 12 13 14 14 13 13 12 11 10 9
3 7 13 17 16 16 16 22 25 18 9 11 19 17 11 8 11 14 15 14 17 18 17 16 15 11 12 12 13 13 13 13 12 12 13 12 11 11 10 10 10 10 10 9
14 19 13 14 15 19 24 23 17 8 17 19 14 11 8 12 15 14 16 20 18 16 12 11 11 11 11 11 11 12 13 13 13 13 14 15 15 14 14 14 13 12 11 11
8 8 12 20 22 21 17 9 16 22 16 13 9 10 13 16 16 19 20 18 12 11 11 12 12 13 15 16 18 21 23 23 24 25 26 27 28 27 27 27 27 26 23 21
12 21 23 20 14 12 21 23 17 14 9 8 12 16 17 17 20 20 14 11 12 13 13 15 18 21 22 22 23 22 18 16 14 10 7 8 8 10 13 16 19 22 27 28
Height
3010 3008 3003 2998 2996 2995 2993 2994 2992 2980 2977 2976 2973 2967 2963 2957 2952 2946 2940 2933 2925 2919 2913 2908 2905 2903 2901 2899 2896 2895 2894 2895 2897 2899 2903 2909 2919 2927 2935 2943 2949 2955 2961 2965
2999 2999 2995 2988 2986 2985 2985 2984 2979 2978 2973 2974 2970 2965 2960 2954 2949 2944 2938 2932 2926 2919 2912 2907 2904 2901 2900 2899 2897 2895 2894 2894 2896 2898 2901 2906 2913 2921 2929 2935 2941 2947 2954 2960
2997 2993 2988 2978 2972 2974 2975 2974 2975 2972 2973 2970 2967 2963 2958 2952 2946 2942 2936 2931 2926 2919 2913 2907 2902 2900 2899 2898 2897 2896 2895 2895 2896 2898 2899 2903 2910 2917 2924 2932 2937 2944 2946 2950
2996 2991 2986 2975 2973 2972 2972 2971 2969 2968 2969 2967 2963 2960 2954 2949 2943 2939 2934 2929 2925 2920 2914 2908 2903 2898 2896 2896 2896 2896 2896 2896 2895 2897 2899 2901 2907 2912 2919 2926 2932 2935 2940 2948
2997 2991 2979 2969 2968 2969 2968 2966 2963 2963 2965 2963 2959 2956 2953 2947 2941 2936 2932 2927 2923 2919 2914 2909 2904 2899 2896 2894 2894 2895 2896 2896 2896 2896 2898 2900 2903 2907 2911 2917 2924 2931 2935 2940
2993 2992 2983 2967 2966 2966 2965 2962 2962 2962 2960 2957 2954 2950 2949 2944 2939 2934 2929 2925 2921 2918 2914 2909 2904 2899 2896 2894 2892 2892 2893 2895 2896 2896 2896 2898 2901 2904 2907 2911 2916 2920 2926 2931
2987 2986 2971 2965 2963 2964 2966 2966 2959 2957 2955 2952 2950 2947 2943 2939 2935 2930 2926 2922 2919 2916 2913 2909 2904 2900 2896 2893 2891 2890 2890 2892 2894 2895 2896 2896 2898 2901 2903 2905 2908 2913 2916 2921
2979 2980 2968 2960 2961 2964 2962 2958 2956 2953 2950 2945 2943 2942 2938 2935 2931 2927 2923 2918 2915 2912 2910 2908 2904 2900 2896 2892 2889 2888 2888 2887 2889 2891 2892 2894 2895 2896 2900 2902 2904 2906 2908 2914
2969 2961 2958 2956 2957 2956 2953 2951 2950 2947 2944 2940 2938 2936 2933 2931 2928 2924 2920 2915 2912 2908 2906 2905 2903 2900 2896 2892 2889 2887 2886 2884 2884 2886 2888 2890 2891 2893 2894 2895 2897 2900 2903 2905
2955 2950 2951 2950 2949 2948 2946 2945 2944 2941 2937 2934 2931 2929 2927 2925 2923 2920 2916 2912 2908 2905 2902 2900 2899 2897 2895 2891 2887 2885 2883 2883 2882 2881 2882 2884 2886 2887 2888 2890 2893 2893 2894 2896
2940 2940 2942 2940 2939 2940 2940 2939 2937 2935 2931 2928 2925 2924 2921 2920 2916 2914 2912 2908 2904 2901 2898 2896 2894 2893 2891 2890 2887 2883 2880 2880 2879 2879 2879 2880 2880 2882 2883 2884 2886 2887 2889 2889
2928 2934 2931 2933 2932 2934 2935 2934 2931 2928 2925 2921 2918 2916 2915 2913 2911 2909 2907 2903 2900 2898 2895 2892 2890 2888 2886 2885 2884 2881 2878 2875 2875 2875 2875 2876 2877 2877 2878 2879 2878 2880 2882 2883
2921 2923 2922 2924 2928 2930 2930 2928 2925 2921 2917 2914 2911 2909 2907 2907 2905 2903 2901 2898 2895 2893 2891 2888 2885 2883 2881 2880 2878 2877 2876 2873 2871 2871 2871 2872 2872 2873 2874 2875 2875 2875 2876 2877
2914 2916 2919 2923 2925 2924 2923 2921 2917 2914 2910 2906 2904 2902 2900 2900 2898 2897 2895 2893 2890 2888 2886 2884 2881 2878 2877 2875 2872 2871 2870 2869 2866 2865 2866 2866 2867 2868 2868 2868 2869 2870 2870 2871
2910 2914 2920 2920 2919 2918 2917 2915 2911 2907 2903 2900 2897 2895 2894 2893 2892 2890 2889 2887 2885 2882 2880 2878 2876 2873 2872 2869 2867 2865 2863 2863 2863 2861 2861 2861 2862 2863 2863 2863 2863 2863 2864 2864
2915 2915 2917 2915 2914 2913 2912 2909 2904 2900 2896 2893 2890 2888 2887 2886 2884 2883 2882 2880 2878 2875 2874 2872 2869 2867 2865 2863 2861 2859 2857 2856 2857 2857 2856 2856 2857 2857 2858 2858 2858 2858 2858 2858
2915 2914 2911 2910 2909 2909 2908 2903 2898 2893 2888 2885 2882 2881 2880 2879 2878 2876 2875 2873 2871 2869 2868 2865 2863 2861 2859 2856 2854 2852 2851 2850 2851 2851 2852 2852 2852 2852 2853 2854 2854 2853 2853 2853
2911 2908 2906 2905 2903 2903 2900 2895 2889 2885 2880 2876 2874 2873 2872 2871 2871 2869 2867 2866 2864 2862 2861 2858 2856 2853 2851 2850 2848 2846 2845 2845 2845 2846 2846 2847 2848 2849 2848 2849 2849 2849 2849 2849
2906 2904 2902 2900 2900 2895 2889 2883 2879 2874 2871 2868 2866 2865 2865 2864 2863 2862 2860 2858 2857 2855 2854 2851 2849 2846 2844 2843 2841 2839 2839 2839 2840 2841 2841 2842 2843 2844 2844 2845 2845 2845 2845 2844
2901 2899 2897 2895 2891 2885 2879 2874 2869 2866 2863 2860 2859 2859 2859 2858 2856 2855 2853 2852 2850 2848 2846 2844 2842 2839 2838 2837 2835 2834 2834 2834 2835 2836 2836 2837 2838 2839 2840 2840 2840 2840 2840 2838
2894 2892 2889 2885 2881 2877 2870 2865 2862 2859 2856 2854 2854 2853 2852 2851 2849 2848 2847 2845 2843 2841 2839 2837 2835 2834 2832 2831 2830 2830 2830 2830 2830 2831 2831 2832 2833 2834 2835 2834 2834 2834 2833 2833
2889 2885 2881 2876 2871 2867 2863 2860 2857 2853 2851 2849 2848 2847 2845 2844 2843 2842 2840 2839 2837 2835 2833 2831 2830 2829 2828 2827 2827 2826 2826 2826 2827 2827 2827 2827 2828 2828 2828 2828 2828 2827 2827 2827
2879 2875 2870 2866 2861 2858 2857 2853 2850 2847 2845 2843 2842 2840 2839 2838 2837 2836 2834 2832 2830 2829 2827 2827 2826 2825 2824 2823 2823 2822 2822 2822 2823 2823 2823 2823 2823 2823 2823 2822 2822 2822 2821 2821
2869 2865 2861 2857 2854 2852 2850 2846 2843 2841 2839 2837 2835 2834 2833 2832 2831 2829 2827 2826 2825 2824 2824 2823 2822 2821 2821 2820 2820 2819 2819 2819 2819 2819 2818 2818 2817 2817 2816 2815 2815 2814 2814 2814
2859 2855 2852 2850 2848 2845 2841 2838 2836 2835 2833 2831 2830 2829 2828 2827 2826 2823 2822 2821 2821 2821 2820 2820 2819 2818 2818 2817 2817 2816 2816 2815 2814 2814 2813 2812 2811 2810 2809 2808 2807 2806 2805 2805
2851 2849 2846 2843 2840 2837 2834 2833 2831 2829 2827 2826 2825 2824 2823 2821 2820 2819 2818 2818 2818 2817 2817 2816 2816 2815 2815 2814 2814 2813 2812 2811 2810 2809 2808 2807 2806 2805 2803 2801 2799 2797 2795 2794
2845 2842 2839 2836 2834 2831 2829 2827 2826 2825 2824 2822 2820 2819 2818 2817 2816 2816 2816 2815 2815 2815 2814 2814 2813 2813 2813 2813 2813 2812 2811 2811 2810 2809 2808 2807 2805 2803 2801 2798 2795 2792 2788 2785